Augusta, GA

7:32 PM EST on February 13, 2016 (GMT -0500)
Daniel

Weather History for KDNL - January, 2014

Change the Weather History Date:

Saturday, January 11, 2014

  Actual Average (KAGS) Record (KAGS)
Temperature  
Mean Temperature 60 °F 45 °F  
Max Temperature 69 °F 57 °F 83 °F (1949)
Min Temperature 51 °F 33 °F 1 °F (1982)
Degree Days  
Heating Degree Days 5 20  
Month to date heating degree days 264 220  
Since 1 July heating degree days 1026 1195  
Cooling Degree Days 0 0  
Month to date cooling degree days 0 0  
Year to date cooling degree days 0 0  
Growing Degree Days 10 (Base 50)    
Moisture  
Dew Point 60 °F    
Average Humidity 93    
Maximum Humidity 100    
Minimum Humidity 67    
Precipitation  
Precipitation 0.72 in 0.13 in 1.90 in (1892)
Month to date precipitation 2.17 1.35  
Year to date precipitation 2.17 1.35  
Sea Level Pressure  
Sea Level Pressure 29.84 in    
Wind  
Wind Speed 8 mph (SSW)    
Max Wind Speed 22 mph    
Max Gust Speed 44 mph    
Visibility 6 miles    
Events Fog , Rain    
T = Trace of Precipitation, MM = Missing Value Source: NWS Daily Summary

Daily Weather History Graph

Daily Weather History Graph

Search for Another Location

Airport or City:

Trip Planner

Search our weather history database for the weather conditions in past years. The results will help you decide how hot, cold, wet, or windy it might be!

Date:

Astronomy

Jan. 11, 2014 Rise Set
Actual Time 7:32 AM EST 5:39 PM EST
Civil Twilight 7:05 AM EST 6:06 PM EST
Nautical Twilight 6:35 AM EST 6:37 PM EST
Astronomical Twilight 6:05 AM EST 7:07 PM EST
Moon 2:20 PM EST (1/11) 3:39 AM EST (1/11)
Length of Visible Light 11h 01m
Length of Day
10h 06m
Waxing Gibbous, 83% of the Moon is Illuminated
Jan 11
Waxing Gibbous
Jan 15
Full
Jan 24
Last Quarter
Jan 30
New
Feb 6
First Quarter

Hourly Weather History & Observations

Time (EST) Temp. Dew Point Humidity Pressure Visibility Wind Dir Wind Speed Gust Speed Precip Events Conditions
12:14 AM 51.1 °F 50.0 °F 96% 30.04 in 0.8 mi East 5.8 mph - N/A   Mist
12:53 AM 51.1 °F 51.1 °F 100% 30.04 in 0.2 mi Calm Calm - N/A Fog Fog
1:53 AM 53.1 °F 53.1 °F 100% 30.01 in 0.2 mi SE 3.5 mph - N/A Fog Fog
2:53 AM 53.1 °F 52.0 °F 96% 29.98 in 0.2 mi SE 4.6 mph - N/A Fog Fog
3:53 AM 53.1 °F 52.0 °F 96% 29.96 in 0.2 mi Calm Calm - N/A Fog Fog
4:53 AM 53.1 °F 53.1 °F 100% 29.93 in 0.2 mi SE 4.6 mph - N/A Fog Fog
5:53 AM 60.1 °F 59.0 °F 96% 29.93 in 0.2 mi SSW 10.4 mph - N/A Fog Fog
6:14 AM 63.0 °F 62.1 °F 97% 29.93 in 1.2 mi South 15.0 mph - N/A   Overcast
6:17 AM 63.0 °F 63.0 °F 100% 29.92 in 2.0 mi South 15.0 mph - N/A   Overcast
6:26 AM 64.0 °F 63.0 °F 96% 29.92 in 5.0 mi South 15.0 mph - N/A   Overcast
6:53 AM 64.0 °F 63.0 °F 96% 29.91 in 10.0 mi South 15.0 mph - N/A   Overcast
7:08 AM 64.0 °F 64.0 °F 100% 29.90 in 10.0 mi South 13.8 mph - N/A   Overcast
7:53 AM 66.0 °F 64.0 °F 93% 29.91 in 10.0 mi SSW 12.7 mph - 0.01 in Rain Light Rain
8:12 AM 66.0 °F 64.0 °F 93% 29.88 in 10.0 mi South 11.5 mph - 0.00 in Rain Light Rain
8:38 AM 66.0 °F 64.0 °F 93% 29.85 in 7.0 mi South 10.4 mph - 0.03 in Rain Light Rain
8:49 AM 66.2 °F 64.4 °F 94% 29.87 in 10.0 mi South 11.5 mph - 0.03 in Rain Light Rain
8:53 AM 66.0 °F 64.9 °F 96% 29.86 in 10.0 mi South 12.7 mph - 0.03 in Rain Light Rain
9:36 AM 66.9 °F 64.9 °F 93% 29.88 in 10.0 mi South 17.3 mph - 0.00 in   Overcast
9:53 AM 68.0 °F 64.9 °F 90% 29.87 in 10.0 mi South 13.8 mph 23.0 mph 0.00 in   Overcast
10:38 AM 69.1 °F 64.9 °F 87% 29.84 in 10.0 mi South 16.1 mph 26.5 mph N/A   Mostly Cloudy
10:53 AM 69.1 °F 64.9 °F 87% 29.82 in 10.0 mi South 13.8 mph 23.0 mph 0.00 in Rain Light Rain
11:37 AM 69.1 °F 66.0 °F 90% 29.81 in 10.0 mi South 17.3 mph 24.2 mph 0.01 in Rain Light Rain
11:53 AM 69.1 °F 66.0 °F 90% 29.79 in 10.0 mi South 16.1 mph 27.6 mph 0.01 in Rain Light Rain
12:07 PM 69.1 °F 66.0 °F 90% 29.79 in 10.0 mi SSW 13.8 mph 26.5 mph 0.00 in   Mostly Cloudy
12:53 PM 68.0 °F 66.0 °F 93% 29.77 in 6.0 mi SSW 11.5 mph - 0.02 in Rain Rain
1:03 PM 68.0 °F 66.0 °F 93% 29.77 in 5.0 mi SSW 10.4 mph - 0.02 in Rain Rain
1:14 PM 68.0 °F 66.0 °F 93% 29.77 in 1.8 mi Variable 6.9 mph - 0.09 in Rain Rain
1:17 PM 66.9 °F 64.9 °F 93% 29.80 in 1.0 mi West 18.4 mph 31.1 mph 0.17 in Rain Heavy Rain
1:20 PM 64.9 °F 63.0 °F 93% 29.80 in 0.5 mi WSW 19.6 mph 44.9 mph 0.32 in Fog , Rain Heavy Rain
1:28 PM 63.0 °F 61.0 °F 93% 29.79 in 0.5 mi WSW 12.7 mph 44.9 mph 0.50 in Fog , Rain Heavy Rain
1:32 PM 63.0 °F 60.1 °F 90% 29.79 in 1.2 mi WSW 9.2 mph 20.7 mph 0.51 in Rain Rain
1:35 PM 62.1 °F 60.1 °F 93% 29.80 in 1.8 mi Variable 5.8 mph 20.7 mph 0.52 in Rain Rain
1:38 PM 62.1 °F 60.1 °F 93% 29.80 in 3.0 mi West 9.2 mph 20.7 mph 0.53 in Rain Rain
1:53 PM 61.0 °F 60.1 °F 97% 29.78 in 4.0 mi West 6.9 mph - 0.58 in Rain Rain
2:00 PM 61.0 °F 60.1 °F 97% 29.78 in 4.0 mi West 4.6 mph - 0.01 in Rain Rain
2:27 PM 61.0 °F 57.9 °F 90% 29.74 in 6.0 mi WNW 9.2 mph - 0.04 in Rain Light Rain
2:53 PM 60.1 °F 57.0 °F 90% 29.74 in 6.0 mi West 6.9 mph - 0.07 in Rain Rain
3:53 PM 60.1 °F 57.9 °F 93% 29.73 in 10.0 mi Calm Calm - 0.00 in   Mostly Cloudy
4:53 PM 60.1 °F 59.0 °F 96% 29.72 in 10.0 mi South 5.8 mph - N/A   Clear
5:53 PM 60.1 °F 57.9 °F 93% 29.73 in 10.0 mi SSW 4.6 mph - N/A   Clear
6:12 PM 59.0 °F 57.9 °F 96% 29.74 in 10.0 mi SSW 6.9 mph - N/A   Scattered Clouds
6:17 PM 60.1 °F 57.9 °F 93% 29.75 in 10.0 mi SSW 8.1 mph - N/A   Mostly Cloudy
6:43 PM 59.0 °F 57.9 °F 96% 29.75 in 10.0 mi SW 6.9 mph - N/A   Scattered Clouds
6:53 PM 59.0 °F 57.9 °F 96% 29.75 in 10.0 mi SW 4.6 mph - N/A   Partly Cloudy
7:53 PM 59.0 °F 57.0 °F 93% 29.77 in 10.0 mi SW 8.1 mph - N/A   Clear
8:53 PM 57.9 °F 57.0 °F 97% 29.78 in 10.0 mi SW 6.9 mph - N/A   Clear
9:53 PM 59.0 °F 53.1 °F 81% 29.81 in 10.0 mi West 9.2 mph 17.3 mph N/A   Clear
10:53 PM 57.0 °F 46.0 °F 67% 29.84 in 10.0 mi WNW 6.9 mph 16.1 mph N/A   Clear
11:53 PM 55.0 °F 43.0 °F 64% 29.86 in 10.0 mi West 9.2 mph 17.3 mph N/A   Clear